Flag for U.S.A. Weather past 2 weeks in Midland, Texas, U.S.A.

Now
31 °F

Ice fog.


Feels Like: 27 °F
Forecast: 31 / 54 °F
Wind: 3 mph from East

Location: Midland - Midland Airpark

Current Time: Mar 1, 2015 at 5:22:39 AM

Latest Report: Mar 1, 2015 at 4:55 AM


Visibility: 1 mi

Pressure: 30.18 "Hg

Humidity: 100%

Dew point: 31 °F

Location of MidlandLocation

Historic Weather in Midland — Graph

°F

Midland temperature yesterday

Maximum temperature yesterday: 32 °F (at 7:15 PM)
Minimum temperature yesterday: 20 °F (at 12:15 AM)
Average temperature yesterday: 26 °F

Past Weeks' High & Low Weather Summary

 TemperatureHumidityPressure
High79 °F (Feb 20, 3:15 PM)100% (Feb 22, 10:15 AM)30.52 "Hg (Feb 22, 10:15 AM)
Low20 °F (Feb 27, 10:55 PM)11% (Feb 20, 3:55 PM)29.72 "Hg (Feb 20, 4:55 PM)
Average43 °F69%30.12 "Hg
* Reported Feb 14 4:15 AM — Mar 1 4:15 AM, Midland, Weather by CustomWeather, © 2015

Note: Actual official high and low records may vary slightly from our data, if they occured in-between our weather recording intervals... More about our weather records

Advertising

Midland weather history for previous 24 hours

 ConditionsComfort  
Time TempWeatherWind HumidityBarometerVisibility
4:15 AM
Sun, Mar 1
31 °FIce fog.3 mph100%30.18 "Hg1 mi
3:55 AM31 °FIce fog.3 mph100%30.18 "Hg1 mi
3:35 AM31 °FIce fog.5 mph100%30.18 "Hg1 mi
3:15 AM31 °FIce fog.5 mph100%30.18 "Hg1 mi
2:55 AM31 °FIce fog.5 mph100%30.19 "Hg1 mi
2:15 AM31 °FIce fog.5 mph100%30.19 "Hg1 mi
1:55 AM31 °FIce fog.3 mph100%30.20 "Hg1 mi
1:35 AM31 °FIce fog.3 mph100%30.19 "Hg2 mi
1:15 AM31 °FIce fog.3 mph100%30.19 "Hg1 mi
12:55 AM31 °FIce fog.3 mph100%30.19 "Hg1 mi
12:35 AM31 °FIce fog.No wind100%30.20 "Hg1 mi
12:15 AM31 °FIce fog.5 mph100%30.19 "Hg1 mi
11:55 PM
Sat, Feb 28
31 °FIce fog.3 mph100%30.19 "Hg1 mi
11:15 PM31 °FIce fog.6 mph100%30.20 "Hg1 mi
10:55 PM31 °FIce fog.5 mph100%30.20 "Hg1 mi
10:35 PM31 °FIce fog.6 mph100%30.20 "Hg1 mi
10:15 PM31 °FIce fog.6 mph100%30.20 "Hg1 mi
9:55 PM32 °FIce fog.6 mph100%30.19 "Hg1 mi
9:15 PM32 °FIce fog.6 mph100%30.18 "Hg1 mi
8:55 PM32 °FIce fog.7 mph100%30.17 "Hg2 mi
8:15 PM32 °FIce fog.5 mph100%30.16 "Hg1 mi
7:55 PM32 °FIce fog.5 mph100%30.16 "Hg1 mi
7:35 PM32 °FIce fog.6 mph100%30.14 "Hg1 mi
7:15 PM32 °FIce fog.6 mph100%30.14 "Hg1 mi
6:55 PM32 °FIce fog.6 mph100%30.14 "Hg1 mi
6:35 PM32 °FIce fog.5 mph100%30.14 "Hg1 mi
6:15 PM32 °FIce fog.6 mph100%30.13 "Hg1 mi
5:55 PM32 °FIce fog.6 mph100%30.13 "Hg1 mi
5:35 PM32 °FIce fog.7 mph100%30.12 "Hg1 mi
5:15 PM31 °FIce fog.6 mph100%30.13 "Hg1 mi
4:55 PM31 °FIce fog.6 mph100%30.13 "Hg2 mi
4:15 PM31 °FIce fog.7 mph100%30.13 "Hg2 mi
3:55 PM31 °FIce fog.7 mph100%30.13 "Hg2 mi
3:15 PM30 °FIce fog.6 mph100%30.14 "Hg3 mi
2:55 PM30 °FIce fog.6 mph100%30.14 "Hg3 mi
2:35 PM29 °FIce fog.7 mph100%30.14 "Hg3 mi
2:15 PM29 °FIce fog.6 mph100%30.15 "Hg2 mi
1:55 PM29 °FIce fog.5 mph100%30.16 "Hg3 mi
1:35 PM29 °FIce fog.6 mph100%30.18 "Hg2 mi
1:15 PM29 °FIce fog.5 mph100%30.19 "Hg2 mi
12:55 PM28 °FIce fog.6 mph100%30.19 "Hg2 mi
12:35 PM28 °FIce fog.3 mph100%30.20 "Hg2 mi
12:15 PM28 °FIce fog.5 mph100%30.21 "Hg2 mi
11:55 AM27 °FIce fog.6 mph100%30.22 "Hg2 mi
11:35 AM27 °FIce fog.5 mph100%30.22 "Hg2 mi
11:15 AM26 °FIce fog.6 mph100%30.22 "Hg1 mi
10:55 AM26 °FIce fog.7 mph100%30.23 "Hg1 mi
10:35 AM25 °FIce fog.6 mph98%30.23 "Hg2 mi
10:15 AM24 °FIce fog.6 mph96%30.24 "Hg2 mi
9:55 AM24 °FIce fog.6 mph94%30.23 "Hg2 mi
9:35 AM24 °FIce fog.6 mph93%30.22 "Hg1 mi
9:15 AM23 °FIce fog.5 mph93%30.22 "Hg1 mi
8:55 AM23 °FIce fog.6 mph93%30.22 "Hg1 mi
8:35 AM22 °FIce fog.6 mph93%30.21 "Hg1 mi
8:15 AM22 °FIce fog.7 mph93%30.21 "Hg1 mi
7:55 AM22 °FIce fog.7 mph92%30.20 "Hg2 mi
7:35 AM22 °FIce fog.7 mph92%30.20 "Hg2 mi
7:15 AM22 °FIce fog.9 mph91%30.21 "Hg3 mi
6:55 AM21 °FIce fog.6 mph92%30.21 "Hg3 mi
6:35 AM21 °FIce fog.6 mph92%30.21 "Hg3 mi
6:15 AM21 °FIce fog.6 mph92%30.20 "Hg3 mi
5:55 AM21 °FIce fog.5 mph92%30.21 "Hg3 mi
5:35 AM21 °FIce fog.6 mph91%30.20 "Hg3 mi
5:15 AM21 °FIce fog.7 mph92%30.20 "Hg3 mi
Weather by CustomWeather, © 2015

See weather overviewHow to use our weather pages